Flag for Italy Weather past 2 weeks in Modena, Italy

Now
72 °F

Clear.


Feels Like: 71 °F
Forecast: 64 / 90 °F
Wind: 5 mph from East

Location: Bologna / Borgo Panigale

Current Time: Aug 3, 2015 at 12:30:51 AM

Latest Report: Aug 2, 2015 at 11:20 PM


Visibility: 10 mi

Pressure: 30.04 "Hg

Humidity: 83%

Dew point: 66 °F

Location of ModenaLocation

Historic Weather in Modena — Graph

°F

Modena temperature yesterday

Maximum temperature yesterday: 84 °F (at 3:50 PM)
Minimum temperature yesterday: 66 °F (at 12:50 AM)
Average temperature yesterday: 74 °F

Past Weeks' High & Low Weather Summary

 TemperatureHumidityPressure
High100 °F (Jul 22, 4:20 PM)94% (Jul 31, 9:20 AM)30.04 "Hg (Jul 31, 9:20 AM)
Low64 °F (Aug 1, 3:50 AM)21% (Jul 28, 7:50 PM)29.59 "Hg (Jul 27, 4:50 PM)
Average81 °F56%29.82 "Hg
* Reported Jul 18 10:20 PM — Aug 2 10:50 PM, Modena, Weather by CustomWeather, © 2015

Note: Actual official high and low records may vary slightly from our data, if they occured in-between our weather recording intervals... More about our weather records

Advertising

Modena weather history for previous 24 hours

 ConditionsComfort  
Time TempWeatherWind HumidityBarometerVisibility
10:50 PM
Sun, Aug 2
73 °FClear.5 mph78%30.01 "Hg10 mi
10:20 PM73 °FClear.7 mph78%30.01 "Hg10 mi
9:50 PM73 °FClear.6 mph78%30.01 "Hg10 mi
9:20 PM75 °FSunny.8 mph74%30.01 "Hg10 mi
8:50 PM77 °FSunny.7 mph69%30.01 "Hg10 mi
8:20 PM79 °FPassing clouds.7 mph61%30.01 "HgN/A
7:50 PM79 °FPassing clouds.7 mph61%30.01 "HgN/A
7:20 PM81 °FPassing clouds.7 mph58%30.01 "HgN/A
6:50 PM81 °FPassing clouds.8 mph58%29.98 "HgN/A
6:20 PM81 °FPassing clouds.9 mph58%29.98 "HgN/A
5:50 PM82 °FPassing clouds.8 mph55%29.98 "HgN/A
5:20 PM82 °FPassing clouds.7 mph51%29.98 "HgN/A
4:50 PM82 °FPassing clouds.5 mph51%29.98 "HgN/A
4:20 PM82 °FPassing clouds.7 mph55%30.01 "HgN/A
3:50 PM84 °FPassing clouds.6 mph51%30.01 "HgN/A
3:20 PM81 °FPassing clouds.7 mph54%30.01 "HgN/A
2:50 PM81 °FPassing clouds.3 mph58%30.01 "HgN/A
2:20 PM79 °FPassing clouds.6 mph58%30.04 "HgN/A
1:50 PM79 °FPassing clouds.5 mph58%30.04 "HgN/A
1:20 PM79 °FPassing clouds.2 mph54%30.04 "HgN/A
12:50 PM77 °FPassing clouds.5 mph57%30.04 "HgN/A
12:20 PM79 °FPassing clouds.3 mph58%30.04 "HgN/A
11:50 AM77 °FPassing clouds.3 mph57%30.04 "HgN/A
11:20 AM75 °FPassing clouds.5 mph65%30.04 "HgN/A
10:50 AM75 °FPassing clouds.5 mph61%30.04 "HgN/A
10:20 AM73 °FPassing clouds.3 mph65%30.04 "HgN/A
9:50 AM73 °FPassing clouds.3 mph65%30.04 "HgN/A
9:20 AM72 °FPassing clouds.8 mph73%30.01 "HgN/A
8:50 AM70 °FPassing clouds.7 mph78%30.01 "HgN/A
8:20 AM68 °FSunny.9 mph83%30.01 "Hg10 mi
7:50 AM68 °FClear.6 mph78%30.01 "Hg6 mi
7:20 AM68 °FClear.6 mph83%30.01 "Hg5 mi
6:50 AM66 °FPassing clouds.3 mph88%30.01 "Hg5 mi
6:20 AM66 °FPassing clouds.6 mph88%30.01 "Hg5 mi
5:50 AM66 °FPassing clouds.5 mph88%30.01 "Hg5 mi
5:20 AM66 °FPassing clouds.7 mph88%30.01 "HgN/A
4:50 AM66 °FPassing clouds.7 mph88%30.01 "HgN/A
4:20 AM66 °FPassing clouds.7 mph83%30.01 "HgN/A
3:50 AM66 °FPassing clouds.6 mph83%30.01 "HgN/A
3:20 AM66 °FPassing clouds.5 mph88%30.01 "HgN/A
2:50 AM66 °FPassing clouds.5 mph88%30.01 "HgN/A
2:20 AM66 °FPassing clouds.5 mph88%30.01 "HgN/A
1:50 AM66 °FPassing clouds.5 mph88%30.01 "HgN/A
1:20 AM66 °FPassing clouds.5 mph88%30.01 "HgN/A
12:50 AM66 °FPassing clouds.5 mph88%30.01 "HgN/A
Weather by CustomWeather, © 2015

See weather overviewHow to use our weather pages